BAW8PZ LROP-LRTR

Flight info

Callsign BAW8PZ
Flight time 0h 41m
Altitude 28000
Route SOKRU DCT OXDOC DCT NEKUL
Aircraft B77W/H-SDE1E2E3FGHIJ2J3J4J5M1RWXY/LB1D1

Departure

Time 2026-04-20 18:22
Airport Bucharest Henri Coandă International Airport (LROP)

Arrival

Time 2026-04-20 19:04
Airport Timișoara Traian Vuia International Airport (LRTR)
Time Latitude Longitude Altitude Speed Heading
2026-04-20 17:44 44.57039 26.08258 319 ft 0 kts 307°
2026-04-20 18:01 44.57036 26.08263 317 ft 3 kts 307°
2026-04-20 18:01 44.57020 26.08293 317 ft 4 kts 309°
2026-04-20 18:02 44.57002 26.08322 319 ft 4 kts 310°
2026-04-20 18:02 44.56986 26.08349 316 ft 2 kts 309°
2026-04-20 18:02 44.56969 26.08369 317 ft 4 kts
2026-04-20 18:02 44.56958 26.08366 316 ft 0 kts 33°
2026-04-20 18:08 44.56959 26.08367 321 ft 1 kts 33°
2026-04-20 18:08 44.56985 26.08381 319 ft 6 kts 11°
2026-04-20 18:08 44.57045 26.08382 319 ft 10 kts 355°
2026-04-20 18:09 44.57117 26.08372 319 ft 11 kts 354°
2026-04-20 18:09 44.57192 26.08364 319 ft 11 kts
2026-04-20 18:09 44.57226 26.08421 319 ft 7 kts 78°
2026-04-20 18:09 44.57269 26.08494 322 ft 13 kts 18°
2026-04-20 18:10 44.57348 26.08487 322 ft 11 kts 352°
2026-04-20 18:10 44.57425 26.08473 322 ft 11 kts 353°
2026-04-20 18:10 44.57491 26.08510 324 ft 11 kts 64°
2026-04-20 18:10 44.57504 26.08620 327 ft 12 kts 83°
2026-04-20 18:11 44.57515 26.08752 325 ft 17 kts 84°
2026-04-20 18:11 44.57528 26.08920 324 ft 18 kts 83°
2026-04-20 18:11 44.57541 26.09098 320 ft 18 kts 84°
2026-04-20 18:11 44.57554 26.09277 319 ft 18 kts 83°
2026-04-20 18:12 44.57569 26.09456 321 ft 18 kts 84°
2026-04-20 18:12 44.57581 26.09614 321 ft 12 kts 84°
2026-04-20 18:12 44.57589 26.09734 321 ft 12 kts 84°
2026-04-20 18:12 44.57598 26.09853 321 ft 12 kts 84°
2026-04-20 18:13 44.57608 26.09973 328 ft 12 kts 84°
2026-04-20 18:13 44.57617 26.10093 327 ft 13 kts 84°
2026-04-20 18:13 44.57627 26.10223 322 ft 14 kts 84°
2026-04-20 18:13 44.57627 26.10231 322 ft 0 kts 84°
2026-04-20 18:15 44.57628 26.10237 322 ft 2 kts 84°
2026-04-20 18:15 44.57629 26.10262 323 ft 3 kts 84°
2026-04-20 18:15 44.57632 26.10303 323 ft 5 kts 84°
2026-04-20 18:15 44.57636 26.10352 324 ft 5 kts 84°
2026-04-20 18:16 44.57639 26.10403 323 ft 5 kts 84°
2026-04-20 18:16 44.57644 26.10458 326 ft 8 kts 83°
2026-04-20 18:16 44.57650 26.10540 323 ft 9 kts 83°
2026-04-20 18:16 44.57659 26.10648 321 ft 13 kts 83°
2026-04-20 18:17 44.57670 26.10797 318 ft 17 kts 84°
2026-04-20 18:17 44.57682 26.10960 319 ft 17 kts 84°
2026-04-20 18:17 44.57694 26.11123 317 ft 17 kts 84°
2026-04-20 18:17 44.57707 26.11306 317 ft 23 kts 84°
2026-04-20 18:18 44.57725 26.11530 319 ft 23 kts 84°
2026-04-20 18:18 44.57742 26.11754 323 ft 23 kts 84°
2026-04-20 18:18 44.57759 26.11979 323 ft 23 kts 84°
2026-04-20 18:18 44.57776 26.12203 321 ft 23 kts 84°
2026-04-20 18:19 44.57793 26.12428 318 ft 24 kts 84°
2026-04-20 18:19 44.57806 26.12613 316 ft 17 kts 84°
2026-04-20 18:19 44.57814 26.12729 317 ft 6 kts 84°
2026-04-20 18:19 44.57819 26.12792 315 ft 7 kts 83°
2026-04-20 18:20 44.57845 26.12840 317 ft 0 kts 21°
2026-04-20 18:20 44.57846 26.12840 317 ft 0 kts 21°
2026-04-20 18:20 44.57857 26.12843 317 ft 6 kts
2026-04-20 18:20 44.57928 26.12805 318 ft 13 kts 325°
2026-04-20 18:21 44.57980 26.12748 316 ft 8 kts 309°
2026-04-20 18:21 44.57984 26.12687 318 ft 0 kts 262°
2026-04-20 18:21 44.57966 26.12460 320 ft 63 kts 264°
2026-04-20 18:22 44.57889 26.11445 319 ft 143 kts 264°
2026-04-20 18:22 44.57743 26.09840 652 ft 171 kts 262°
2026-04-20 18:22 44.57587 26.08189 1558 ft 164 kts 263°
2026-04-20 18:22 44.57441 26.06663 2624 ft 162 kts 264°
2026-04-20 18:23 44.57286 26.05069 3384 ft 167 kts 265°
2026-04-20 18:23 44.57127 26.03411 4114 ft 175 kts 265°
2026-04-20 18:23 44.56961 26.01684 4853 ft 182 kts 265°
2026-04-20 18:23 44.56802 25.99964 5574 ft 184 kts 270°
2026-04-20 18:24 44.57124 25.98295 6036 ft 197 kts 306°
2026-04-20 18:24 44.58111 25.96763 6300 ft 229 kts 313°
2026-04-20 18:24 44.59248 25.95035 6726 ft 255 kts 312°
2026-04-20 18:24 44.60453 25.93146 7697 ft 263 kts 311°
2026-04-20 18:25 44.61664 25.91194 8796 ft 266 kts 310°
2026-04-20 18:25 44.62872 25.89206 9935 ft 269 kts 309°
2026-04-20 18:25 44.64100 25.87149 10709 ft 284 kts 308°
2026-04-20 18:25 44.65426 25.84894 11002 ft 316 kts 308°
2026-04-20 18:26 44.66889 25.82383 11343 ft 344 kts 308°
2026-04-20 18:26 44.68422 25.79735 12297 ft 353 kts 308°
2026-04-20 18:26 44.69977 25.77036 13405 ft 358 kts 307°
2026-04-20 18:26 44.71549 25.74294 14473 ft 362 kts 307°
2026-04-20 18:27 44.73118 25.71552 15459 ft 366 kts 307°
2026-04-20 18:27 44.74730 25.68727 16436 ft 372 kts 307°
2026-04-20 18:27 44.76363 25.65862 17419 ft 378 kts 307°
2026-04-20 18:27 44.78023 25.62946 18352 ft 384 kts 307°
2026-04-20 18:28 44.79700 25.59996 19211 ft 388 kts 307°
2026-04-20 18:28 44.81401 25.57002 20083 ft 393 kts 307°
2026-04-20 18:28 44.83113 25.53985 20953 ft 397 kts 307°
2026-04-20 18:28 44.84849 25.50922 21751 ft 402 kts 307°
2026-04-20 18:29 44.86568 25.47886 22526 ft 408 kts 306°
2026-04-20 18:29 44.88332 25.44767 23337 ft 412 kts 306°
2026-04-20 18:29 44.90102 25.41634 24112 ft 414 kts 306°
2026-04-20 18:29 44.91901 25.38447 24878 ft 415 kts 306°
2026-04-20 18:30 44.93694 25.35268 25768 ft 412 kts 306°
2026-04-20 18:30 44.95476 25.32106 26772 ft 408 kts 306°
2026-04-20 18:30 44.97236 25.28977 27628 ft 408 kts 306°
2026-04-20 18:30 44.98998 25.25842 27895 ft 407 kts 306°
2026-04-20 18:31 45.00716 25.22719 27889 ft 404 kts 303°
2026-04-20 18:31 45.02179 25.19343 27899 ft 402 kts 296°
2026-04-20 18:31 45.03393 25.15779 27893 ft 402 kts 292°
2026-04-20 18:31 45.04385 25.12075 27886 ft 402 kts 287°
2026-04-20 18:32 45.05154 25.08277 27901 ft 403 kts 285°
2026-04-20 18:32 45.05894 25.04502 27889 ft 403 kts 285°
2026-04-20 18:32 45.06639 25.00676 27897 ft 403 kts 285°
2026-04-20 18:32 45.07362 24.96972 27893 ft 404 kts 285°
2026-04-20 18:33 45.08110 24.93148 27894 ft 403 kts 285°
2026-04-20 18:33 45.08860 24.89320 27904 ft 403 kts 285°
2026-04-20 18:33 45.09579 24.85654 27898 ft 402 kts 286°
2026-04-20 18:33 45.10325 24.81851 27889 ft 400 kts 286°
2026-04-20 18:34 45.11070 24.78054 27896 ft 399 kts 286°
2026-04-20 18:34 45.11810 24.74276 27894 ft 398 kts 286°
2026-04-20 18:34 45.12549 24.70496 27899 ft 397 kts 285°
2026-04-20 18:34 45.13285 24.66726 27906 ft 396 kts 285°
2026-04-20 18:35 45.14016 24.62973 27902 ft 396 kts 285°
2026-04-20 18:35 45.14747 24.59211 27907 ft 396 kts 285°
2026-04-20 18:35 45.15467 24.55499 27921 ft 396 kts 285°
2026-04-20 18:35 45.16195 24.51736 27920 ft 395 kts 286°
2026-04-20 18:36 45.16920 24.47982 27914 ft 394 kts 286°
2026-04-20 18:36 45.17643 24.44236 27906 ft 393 kts 286°
2026-04-20 18:36 45.18361 24.40506 27915 ft 392 kts 286°
2026-04-20 18:36 45.19076 24.36785 27915 ft 391 kts 285°
2026-04-20 18:37 45.19790 24.33064 27914 ft 391 kts 285°
2026-04-20 18:37 45.20503 24.29336 27918 ft 391 kts 286°
2026-04-20 18:37 45.21213 24.25617 27919 ft 390 kts 286°
2026-04-20 18:37 45.21921 24.21904 27924 ft 390 kts 285°
2026-04-20 18:38 45.22389 24.19446 27930 ft 390 kts 286°
2026-04-20 18:38 45.23324 24.14523 27929 ft 389 kts 286°
2026-04-20 18:38 45.23797 24.12024 27927 ft 388 kts 285°
2026-04-20 18:38 45.24496 24.08334 27924 ft 388 kts 286°
2026-04-20 18:39 45.25193 24.04646 27937 ft 386 kts 286°
2026-04-20 18:39 45.25888 24.00958 27924 ft 385 kts 286°
2026-04-20 18:39 45.26553 23.97419 27948 ft 383 kts 286°
2026-04-20 18:39 45.27239 23.93767 27933 ft 382 kts 285°
2026-04-20 18:40 45.27913 23.90172 27942 ft 382 kts 285°
2026-04-20 18:40 45.28597 23.86525 27937 ft 382 kts 285°
2026-04-20 18:40 45.29279 23.82873 27961 ft 382 kts 285°
2026-04-20 18:40 45.29960 23.79215 27967 ft 383 kts 285°
2026-04-20 18:41 45.30640 23.75552 27945 ft 384 kts 285°
2026-04-20 18:41 45.31321 23.71879 27947 ft 383 kts 285°
2026-04-20 18:41 45.31999 23.68225 27941 ft 383 kts 285°
2026-04-20 18:41 45.32678 23.64555 27935 ft 383 kts 285°
2026-04-20 18:42 45.33353 23.60899 27957 ft 382 kts 285°
2026-04-20 18:42 45.34027 23.57240 27959 ft 383 kts 285°
2026-04-20 18:42 45.34702 23.53570 27957 ft 383 kts 285°
2026-04-20 18:42 45.35376 23.49897 27957 ft 384 kts 285°
2026-04-20 18:43 45.36048 23.46217 27960 ft 385 kts 285°
2026-04-20 18:43 45.36721 23.42532 27960 ft 384 kts 285°
2026-04-20 18:43 45.37375 23.38944 27791 ft 377 kts 285°
2026-04-20 18:43 45.38034 23.35326 27242 ft 377 kts 285°
2026-04-20 18:44 45.38687 23.31736 26718 ft 373 kts 285°
2026-04-20 18:44 45.39331 23.28183 26158 ft 370 kts 284°
2026-04-20 18:44 45.39969 23.24650 25554 ft 367 kts 284°
2026-04-20 18:44 45.40601 23.21150 25047 ft 365 kts 284°
2026-04-20 18:45 45.41232 23.17655 24492 ft 364 kts 283°
2026-04-20 18:45 45.41836 23.14302 23970 ft 364 kts 283°
2026-04-20 18:45 45.42462 23.10819 23429 ft 363 kts 282°
2026-04-20 18:45 45.43085 23.07336 22822 ft 363 kts 283°
2026-04-20 18:46 45.43706 23.03859 22241 ft 361 kts 283°
2026-04-20 18:46 45.44315 23.00448 21724 ft 358 kts 283°
2026-04-20 18:46 45.44907 22.97128 21200 ft 357 kts 283°
2026-04-20 18:46 45.45516 22.93711 20682 ft 355 kts 283°
2026-04-20 18:47 45.46117 22.90320 20160 ft 352 kts 283°
2026-04-20 18:47 45.46715 22.86945 19677 ft 350 kts 283°
2026-04-20 18:47 45.47310 22.83579 19170 ft 349 kts 283°
2026-04-20 18:47 45.47900 22.80230 18657 ft 347 kts 283°
2026-04-20 18:48 45.48488 22.76897 18134 ft 346 kts 283°
2026-04-20 18:48 45.49069 22.73590 17590 ft 343 kts 283°
2026-04-20 18:48 45.49648 22.70293 17061 ft 341 kts 283°
2026-04-20 18:48 45.50221 22.67026 16563 ft 339 kts 284°
2026-04-20 18:49 45.50793 22.63764 16090 ft 337 kts 284°
2026-04-20 18:49 45.51358 22.60526 15598 ft 336 kts 284°
2026-04-20 18:49 45.51959 22.57310 15103 ft 334 kts 287°
2026-04-20 18:49 45.52640 22.54154 14635 ft 333 kts 288°
2026-04-20 18:50 45.53339 22.51050 14166 ft 332 kts 289°
2026-04-20 18:50 45.54050 22.47913 13667 ft 331 kts 289°
2026-04-20 18:50 45.54755 22.44793 13158 ft 329 kts 289°
2026-04-20 18:50 45.55449 22.41697 12653 ft 327 kts 289°
2026-04-20 18:51 45.56132 22.38618 12189 ft 324 kts 289°
2026-04-20 18:51 45.56810 22.35565 11740 ft 321 kts 288°
2026-04-20 18:51 45.57426 22.32795 11344 ft 319 kts 288°
2026-04-20 18:51 45.58107 22.29722 10861 ft 317 kts 288°
2026-04-20 18:52 45.58766 22.26737 10580 ft 310 kts 288°
2026-04-20 18:52 45.59400 22.23845 10443 ft 299 kts 288°
2026-04-20 18:52 45.60013 22.21050 10307 ft 290 kts 288°
2026-04-20 18:52 45.60605 22.18352 10174 ft 280 kts 288°
2026-04-20 18:53 45.61169 22.15776 10063 ft 271 kts 288°
2026-04-20 18:53 45.61723 22.13248 9905 ft 264 kts 288°
2026-04-20 18:53 45.62270 22.10743 9553 ft 263 kts 288°
2026-04-20 18:53 45.62814 22.08256 9223 ft 262 kts 288°
2026-04-20 18:54 45.63354 22.05780 8908 ft 260 kts 288°
2026-04-20 18:54 45.63889 22.03322 8580 ft 259 kts 288°
2026-04-20 18:54 45.64422 22.00869 8242 ft 258 kts 288°
2026-04-20 18:54 45.64935 21.98512 7929 ft 257 kts 288°
2026-04-20 18:55 45.65465 21.96072 7600 ft 257 kts 288°
2026-04-20 18:55 45.65993 21.93638 7272 ft 256 kts 288°
2026-04-20 18:55 45.66519 21.91207 6958 ft 256 kts 287°
2026-04-20 18:55 45.67046 21.88774 6636 ft 256 kts 287°
2026-04-20 18:56 45.67598 21.86356 6314 ft 256 kts 290°
2026-04-20 18:56 45.68210 21.83993 5972 ft 256 kts 291°
2026-04-20 18:56 45.68831 21.81611 5637 ft 256 kts 291°
2026-04-20 18:56 45.69449 21.79221 5309 ft 255 kts 291°
2026-04-20 18:57 45.70060 21.76846 4977 ft 255 kts 291°
2026-04-20 18:57 45.70669 21.74476 4656 ft 251 kts 291°
2026-04-20 18:57 45.71268 21.72139 4332 ft 250 kts 291°
2026-04-20 18:57 45.71865 21.69803 4022 ft 249 kts 291°
2026-04-20 18:58 45.72447 21.67517 3902 ft 240 kts 291°
2026-04-20 18:58 45.73008 21.65313 3789 ft 231 kts 291°
2026-04-20 18:58 45.73553 21.63184 3590 ft 225 kts 292°
2026-04-20 18:58 45.74101 21.61103 3356 ft 222 kts 292°
2026-04-20 18:59 45.74629 21.59044 3092 ft 219 kts 291°
2026-04-20 18:59 45.75128 21.57062 3087 ft 203 kts 291°
2026-04-20 18:59 45.75585 21.55246 3020 ft 191 kts 291°
2026-04-20 18:59 45.76017 21.53529 2948 ft 178 kts 291°
2026-04-20 19:00 45.76426 21.51902 2710 ft 166 kts 291°
2026-04-20 19:00 45.76806 21.50391 2504 ft 159 kts 291°
2026-04-20 19:00 45.77170 21.48943 2263 ft 147 kts 291°
2026-04-20 19:00 45.77501 21.47627 2073 ft 137 kts 291°
2026-04-20 19:01 45.77811 21.46397 1904 ft 136 kts 291°
2026-04-20 19:01 45.78133 21.45116 1729 ft 136 kts 291°
2026-04-20 19:01 45.78456 21.43834 1534 ft 137 kts 291°
2026-04-20 19:01 45.78776 21.42558 1359 ft 139 kts 291°
2026-04-20 19:02 45.79106 21.41244 1148 ft 141 kts 290°
2026-04-20 19:02 45.79441 21.39907 989 ft 144 kts 289°
2026-04-20 19:02 45.79779 21.38549 791 ft 145 kts 289°
2026-04-20 19:02 45.80120 21.37200 575 ft 142 kts 290°
2026-04-20 19:03 45.80459 21.35878 392 ft 140 kts 289°
2026-04-20 19:03 45.80776 21.34628 351 ft 123 kts 288°
2026-04-20 19:03 45.81019 21.33637 353 ft 87 kts 289°
2026-04-20 19:03 45.81184 21.32984 355 ft 52 kts 290°
2026-04-20 19:04 45.81284 21.32584 353 ft 39 kts 290°
2026-04-20 19:04 45.81373 21.32228 353 ft 37 kts 290°
2026-04-20 19:04 45.81458 21.31890 353 ft 34 kts 290°
2026-04-20 19:04 45.81492 21.31760 352 ft 10 kts 290°
2026-04-20 19:05 45.81477 21.31669 356 ft 10 kts 225°
2026-04-20 19:05 45.81414 21.31627 356 ft 10 kts 198°
2026-04-20 19:05 45.81346 21.31593 353 ft 10 kts 199°
2026-04-20 19:05 45.81279 21.31588 354 ft 10 kts 159°
2026-04-20 19:06 45.81241 21.31670 354 ft 11 kts 107°
2026-04-20 19:06 45.81217 21.31774 352 ft 11 kts 110°
2026-04-20 19:06 45.81190 21.31884 352 ft 15 kts 109°
2026-04-20 19:06 45.81149 21.32029 355 ft 16 kts 119°
2026-04-20 19:07 45.81109 21.32176 335 ft 16 kts 109°
2026-04-20 19:07 45.81072 21.32321 352 ft 16 kts 110°
2026-04-20 19:07 45.81043 21.32428 355 ft 8 kts 124°
2026-04-20 19:07 45.81000 21.32432 348 ft 7 kts 189°
2026-04-20 19:08 45.80986 21.32412 357 ft 2 kts 248°
2026-04-20 19:08 45.81006 21.32379 357 ft 0 kts 320°